User: anonymous   Login
Location: Norwich
(52.6280°N, 1.3030°E)
Time: 18:05:44
(UTC+00:00)
Language:

ATLAS 5 CENTAUR R/B - Orbit

View from above orbital plane
View from above orbital plane
View from above satellite
View from above satellite

Ground track
Ground track

The orbit data is extracted from the following two-line orbital elements,

1 32379U 07060B   14314.82556860 0.00004500  00000-0  20442-2 0    06
2 32379  60.9370 355.4844 5184390 198.4498 132.1188  5.23428098    02
Epoch (UTC): 10 November 2014 19:48:49
Eccentricity: 0.5184390
inclination: 60.9370°
perigee height: 369 km
apogee height: 14898 km
right ascension of ascending node: 355.4844°
argument of perigee: 198.4498°
revolutions per day: 5.23428098
mean anomaly at epoch: 132.1188°
orbit number at epoch: 0

The dashed part of the orbit path shows where the satellite is in the earth's shadow,  

DLR